SCP
-0 -0 -0 -0 0 0 0 0 0 0 0 -0 0 0 -0 -0 -0 0 -0 0 0 0 0 -0 -0 -0 -0 -0 -0 -0 -0 -0 -0 -0 -0 -0 0 -0 0 -0 -0 -0 -0 -0 -0 -0 -0 -0 -0
-0 -0 0 0 0 0 0 0 -0 -0 0 0 -0 0 -0 -0 -0 -0 -0 0 -0 0 0 0 0 -0 -0 0 -0 -0 -0 -0 -0 -0 -0 -0 -0 -0 -0 0 -0 -0 -0 -0 -0 -0 -0 -0 -0
-0 0 0 0 0 0 0 0 -0 0 0 0 0 0 0 -0 -0 -0 0 -0 -0 0 0 0 0 -0 -0 0 0 -0 -0 -0 -0 -0 -0 -0 -0 -0 -0 -0 -0 -0 -0 -0 -0 0 0 -0 0
-0 -0 0 0 0 0 0 0 0 0 0 0 -0 -0 -0 -0 -0 0 -0 -0 -0 0 0 0 0 0 0 0 0 0 -0 -0 -0 -0 -0 -0 -0 -0 -0 -0 -0 -0 -0 -0 0 -0 0 -0 -0
-0 -0 0 0 0 0 0 0 0 0 0 0 0 0 -0 -0 -0 -0 -0 -0 -0 0 0 0 0 0 0 0 -0 -0 -0 -0 -0 -0 -0 -0 -0 0 -0 -0 -0 -0 0 -0 -0 0 -0 -0 -0
-0 -0 0 0 0 0 0 -0 -0 0 0 0 0 0 0 0 -0 -0 -0 -0 0 0 0 0 0 0 0 0 -0 -0 0 -0 0 -0 -0 -0 -0 0 -0 -0 -0 0 -0 -0 -0 -0 -0 -0 -0
-0 -0 0 0 0 -0 -0 0 0 0 -0 -0 -0 0 0 -0 -0 -0 -0 -0 -0 0 0 0 0 0 0 0 0 0 -0 -0 0 -0 -0 -0 -0 0 0 0 -0 -0 -0 -0 -0 -0 -0 -0 -0
-0 -0 -0 -0 0 0 0 0 0 0 -0 -0 0 0 -0 -0 -0 -0 -0 -0 -0 0 0 0 0 0 0 0 0 0 -0 -0 -0 -0 0 -0 0 0 0 -0 -0 -0 0 0 0 0 -0 -0 -0
-0 -0 -0 -0 -0 0 0 0 0 0 -0 0 0 -0 -0 -0 -0 0 0 0 -0 0 0 0 0 0 0 0 0 0 0 -0 -0 -0 0 -0 0 0 -0 -0 0 0 0 0 -0 0 -0 -0 -0
0 -0 -0 -0 0 -0 0 0 0 0 -0 -0 -0 -0 -0 -0 -0 -0 0 0 0 0 0 0 0 0 0 0 0 0 0 0 0 0 0 0 0 0 -0 0 0 0 0 0 0 0 0 0 0
-0 0 -0 -0 0 -0 0 -0 0 -0 0 -0 -0 -0 -0 -0 -0 0 0 0 0 0 -0 0 0 0 0 0 0 0 0 0 0 0 0 0 0 0 0 0 0 0 0 0 0 0 0 0 0
0 -0 -0 0 -0 -0 0 0 0 0 0 0 -0 -0 -0 -0 -0 -0 0 0 0 0 -0 -0 0 0 0 0 0 0 0 0 0 0 0 0 0 0 0 0 0 0 0 0 0 0 0 -0 0
0 0 -0 0 -0 0 0 0 0 -0 0 -0 -0 -0 -0 -0 -0 -0 -0 0 0 0 0 0 -0 -0 0 0 0 0 0 0 0 0 0 0 0 0 0 0 0 0 0 0 0 0 0 0 0
0 -0 -0 -0 -0 -0 0 0 0 0 -0 -0 -0 -0 -0 -0 -0 -0 -0 -0 0 -0 0 0 0 0 -0 0 0 0 0 0 0 0 0 0 0 0 0 0 0 0 0 0 0 0 0 0 0
0 0 -0 -0 0 -0 -0 0 0 0 0 -0 -0 0 -0 -0 -0 -0 -0 -0 0 -0 -0 0 -0 -0 -0 0 0 0 0 0 0 0 0 0 0 0 0 0 0 0 0 0 0 0 0 0 0
0 0 0 -0 -0 -0 0 0 -0 0 0 -0 -0 0 0 -0 -0 -0 -0 -0 -0 -0 -0 0 -0 -0 -0 -0 0 0 0 0 0 0 0 0 0 0 0 0 0 0 0 0 0 0 0 0 0
-0 0 0 0 -0 -0 0 -0 -0 -0 -0 -0 -0 -0 0 -0 -0 -0 -0 -0 -0 0 -0 -0 -0 -0 -0 -0 -0 0 0 0 0 0 0 0 0 0 0 0 0 0 0 0 0 0 0 -0 -0
0 -0 0 0 -0 -0 -0 0 -0 -0 0 0 0 -0 0 -0 -0 -0 -0 -0 -0 -0 -0 -0 0 0 -0 0 0 0 0 0 0 0 0 0 0 0 0 0 0 0 0 0 0 0 0 0 0
-0 0 0 0 0 -0 -0 -0 -0 -0 -0 -0 -0 -0 -0 -0 -0 -0 -0 -0 -0 -0 -0 -0 -0 -0 -0 -0 0 0 0 0 0 0 0 0 0 0 0 0 0 0 0 0 0 0 0 0 -0
-0 0 0 0 0 -0 0 -0 -0 -0 -0 -0 -0 -0 -0 0 0 -0 -0 -0 -0 -0 -0 -0 -0 -0 0 -0 -0 0 0 0 0 0 0 0 0 0 0 0 0 0 -0 -0 0 0 0 0 0
0 0 0 0 0 0 -0 -0 -0 -0 -0 -0 -0 -0 -0 0 0 -0 -0 -0 -0 -0 -0 -0 0 0 0 0 0 0 0 0 0 0 0 0 0 0 1 0 0 0 0 -0 0 0 0 0 0
-0 0 0 0 0 0 0 0 0 0 -0 -0 -0 -0 -0 -0 -0 0 -0 -0 -0 -0 0 -0 -0 0 0 0 -0 0 0 0 0 0 0 0 0 0 0 0 0 0 0 -0 -0 0 0 0 -0
-0 0 0 0 0 0 0 0 0 0 0 -0 -0 -0 -0 -0 0 0 -0 -0 -0 -0 -0 0 0 -0 0 -0 -0 0 0 0 0 0 0 0 0 0 0 0 0 0 0 -0 -0 -0 -0 -0 -0
0 0 0 0 0 0 0 0 0 0 -0 0 -0 -0 -0 -0 0 -0 0 0 -0 0 0 0 0 0 -0 -0 -0 -0 0 0 0 0 0 0 0 0 0 0 0 0 0 0 0 0 0 -0 0
0 0 0 0 0 0 0 0 0 -0 -0 -0 -0 0 -0 0 0 -0 0 0 0 0 0 0 -0 -0 -0 -0 -0 -0 -0 0 0 0 0 0 0 0 0 0 0 0 0 0 0 0 0 0 -0
0 0 0 0 0 0 -0 -0 0 0 0 -0 -0 -0 -0 0 0 0 0 0 0 0 0 0 0 0 -0 -0 -0 -0 -0 -0 0 0 0 0 0 0 0 0 0 0 0 0 0 0 0 0 0
0 0 0 0 0 0 0 -0 0 -0 0 0 -0 -0 0 -0 0 0 0 0 0 0 0 0 0 0 0 -0 -0 -0 0 -0 0 0 0 0 0 0 0 0 0 0 0 0 0 0 0 0 0
0 0 0 0 0 0 -0 -0 -0 -0 -0 0 0 -0 0 -0 -0 0 0 0 0 0 0 0 0 0 0 0 0 -0 -0 0 0 -0 0 0 0 0 0 0 0 0 0 0 0 0 0 0 0
0 0 0 0 0 0 0 0 0 0 0 0 0 -0 0 0 0 0 0 0 0 0 0 0 0 0 0 0 0 0 0 -0 0 0 -0 0 0 0 0 0 0 0 0 0 0 0 0 0 0
0 0 0 0 0 0 0 0 0 -0 -0 0 0 0 0 0 -0 -0 -0 -0 0 0 0 0 0 0 0 0 0 0 0 0 0 0 -0 0 0 0 0 0 0 0 0 0 0 0 0 0 0
Wind_Speed_500mb
8 8 4 2 2 2 6 7 3 7 6 4 11 1 3 9 4 4 18 35 39 36 34 30 27 27 22 22 21 19 18 19 18 19 18 17 16 16 15 11 10 11 11 13 12 13 14 13 11
7 3 6 2 0 6 7 8 24 17 17 16 14 9 7 7 7 15 33 30 38 34 32 30 28 27 24 22 23 22 19 17 15 16 14 14 15 15 13 9 14 16 16 15 12 13 14 14 15
2 4 5 3 4 6 11 11 11 5 4 4 7 12 5 5 7 25 22 32 34 30 29 29 26 24 25 22 21 19 19 17 15 15 15 14 12 13 11 14 17 18 17 15 13 12 13 15 15
3 2 6 2 4 4 12 10 2 4 9 7 14 12 9 8 15 13 26 33 31 26 25 25 22 23 22 24 21 18 17 17 16 15 13 10 13 16 20 20 18 17 14 14 13 13 15 17 15
6 3 4 4 2 3 4 2 2 4 1 8 4 9 7 7 11 18 23 26 25 25 25 23 20 20 23 23 23 22 19 18 16 13 11 5 16 19 22 22 17 13 13 12 12 12 13 13 11
2 1 3 2 1 2 4 4 2 7 6 9 8 12 5 13 17 25 23 21 22 20 23 23 21 20 21 21 19 19 18 16 15 15 11 15 24 18 22 20 16 13 13 13 14 13 13 12 12
2 2 5 3 2 6 6 10 2 8 12 8 16 6 11 17 25 22 21 20 19 19 19 20 21 20 21 19 16 15 16 15 14 13 14 15 24 18 19 19 16 15 16 15 16 13 10 11 10
3 1 0 3 6 3 8 8 6 10 9 17 5 4 12 25 26 21 21 18 17 16 16 16 18 18 21 23 19 15 14 12 14 13 20 21 22 20 21 17 16 19 18 18 16 14 11 5 6
3 1 4 4 7 5 12 8 9 8 21 9 4 3 12 31 25 22 19 17 17 18 19 21 23 26 26 19 22 20 15 13 18 22 25 23 24 23 21 18 19 19 18 16 11 15 17 4 10
4 1 3 2 5 5 17 8 16 12 13 6 13 16 29 28 25 19 16 15 14 19 20 20 21 23 24 24 24 21 19 19 23 22 29 27 24 23 19 18 22 18 15 12 9 7 10 6 6
4 4 6 3 7 18 11 10 9 14 6 8 17 28 30 28 23 17 15 12 17 19 16 15 15 16 16 22 26 24 24 23 25 37 30 25 24 23 19 18 18 16 10 5 9 14 10 8 7
3 9 5 3 9 14 7 8 8 8 3 6 24 28 28 27 22 18 16 13 18 18 14 12 13 15 19 24 28 27 26 31 38 37 27 25 21 20 19 18 17 14 7 6 12 10 11 14 9
2 2 10 9 12 9 7 15 4 8 5 12 29 29 26 24 20 18 16 14 16 15 15 15 16 17 19 28 37 35 33 42 36 32 34 23 22 21 20 16 15 11 13 14 9 12 12 9 8
8 16 12 7 11 9 8 7 7 7 11 22 30 29 26 23 21 20 18 15 14 18 21 22 23 19 26 31 36 39 43 35 34 39 35 20 21 22 19 11 9 7 11 11 12 12 13 9 6
4 7 8 6 3 5 12 1 7 10 17 23 28 28 26 23 23 20 16 15 17 21 25 23 24 24 28 33 38 45 34 32 38 34 28 16 20 21 16 10 8 9 11 11 11 9 4 9 9
4 3 4 8 9 7 8 12 23 24 18 22 28 29 29 26 25 23 19 18 20 21 27 24 26 29 30 35 41 35 39 41 38 38 24 24 23 19 17 12 7 9 9 14 16 14 13 11 10
1 7 3 4 18 6 11 6 7 32 25 24 26 31 31 28 28 28 23 22 22 25 25 25 28 35 37 37 37 40 39 34 28 26 25 27 21 16 15 12 11 5 6 5 9 12 13 10 11
4 10 4 7 15 14 17 21 2 30 29 28 33 34 35 36 34 32 28 26 25 27 26 27 27 34 37 40 36 31 28 24 18 29 27 28 18 16 15 11 9 3 8 9 11 8 13 13 14
5 10 15 5 11 17 22 23 22 23 39 39 36 39 42 43 32 33 37 31 30 32 29 30 32 37 41 42 38 29 25 22 19 25 26 29 18 17 14 10 5 0 4 9 9 10 9 12 15
13 16 14 3 10 20 11 29 32 33 48 53 52 47 47 40 32 35 42 39 38 34 32 32 35 39 43 41 34 27 23 23 17 25 26 28 19 16 11 10 7 5 4 7 10 14 12 13 13
19 19 14 8 9 11 14 18 17 24 45 42 55 57 50 49 37 36 44 45 43 39 37 34 39 39 39 38 34 27 28 26 21 23 26 28 21 15 10 12 6 8 8 4 9 12 17 14 14
26 8 19 13 10 7 3 12 13 10 24 35 47 53 51 50 45 38 45 49 50 45 38 38 39 36 38 39 36 29 30 28 24 23 23 23 19 14 12 12 13 8 11 7 5 9 9 11 8
11 8 2 9 6 9 8 8 6 4 14 33 45 50 54 54 50 46 56 53 50 49 43 42 43 40 36 36 34 32 30 28 25 23 24 22 18 16 13 15 18 16 12 12 9 9 7 3 7
13 15 17 9 2 6 3 7 13 5 7 6 29 52 57 57 52 50 51 51 48 51 46 44 45 47 42 37 33 30 31 32 28 30 26 27 23 19 18 19 23 23 19 17 15 13 11 6 5
14 11 2 3 4 9 1 9 19 10 19 22 20 33 55 56 55 50 52 59 57 62 56 50 49 45 47 43 38 33 27 29 22 28 29 28 30 25 20 17 22 23 23 23 22 17 17 13 13
24 17 9 10 8 10 5 10 8 5 17 14 9 17 36 50 58 56 58 62 58 62 60 55 53 48 46 45 44 39 32 31 30 26 32 30 33 28 25 20 17 23 25 22 25 24 21 19 17
13 13 3 4 2 8 5 11 22 7 8 5 6 13 29 44 55 61 60 57 53 64 65 56 53 50 45 44 42 42 38 35 33 30 32 36 30 33 31 26 25 22 26 25 25 27 27 26 25
12 22 8 5 10 14 6 10 12 8 12 9 9 14 19 29 38 46 55 60 50 55 60 58 52 48 47 45 47 43 42 38 31 30 33 29 30 33 33 33 29 28 27 28 26 28 29 29 31
10 10 4 3 4 7 8 10 7 10 13 18 16 18 18 24 34 41 49 57 51 50 51 51 50 47 45 45 45 48 43 41 37 31 30 31 32 34 34 35 30 31 29 30 29 28 26 27 28
8 14 28 16 15 2 7 12 4 7 11 12 12 17 16 18 24 29 37 46 48 44 44 48 45 41 39 40 40 41 44 44 43 38 31 34 33 31 30 31 33 31 27 27 31 35 36 34 33
Wind_Direction_500mb
123 90 116 15 191 77 60 43 36 100 53 15 130 227 130 69 359 16 158 158 158 156 153 150 151 148 146 148 148 147 142 136 133 130 137 141 140 143 148 146 144 149 151 145 152 146 151 155 156
165 12 17 31 142 134 98 46 92 79 126 102 88 73 48 75 56 124 138 153 157 158 156 156 155 154 150 145 152 155 154 152 148 140 155 153 160 151 153 125 119 123 136 135 143 139 136 137 126
219 13 7 56 102 140 125 119 99 55 268 112 109 73 55 50 96 140 148 156 156 159 161 164 164 162 157 158 152 157 162 163 157 161 175 180 174 163 160 127 121 127 125 126 129 133 125 126 132
107 42 49 17 152 116 121 134 48 75 95 80 120 92 88 89 136 142 143 157 155 159 161 160 166 173 165 163 169 173 164 159 163 161 174 166 182 174 146 126 133 126 114 115 123 122 130 128 117
54 52 61 84 22 99 170 208 87 80 332 109 120 112 97 124 146 155 151 151 161 166 164 158 166 167 173 170 174 181 174 165 165 165 157 153 148 137 136 132 134 121 117 112 104 104 125 127 123
16 70 34 32 21 205 262 157 180 148 124 117 96 111 110 141 144 152 154 159 162 176 175 168 167 167 168 174 180 181 173 173 173 169 156 132 132 131 125 145 136 132 114 108 109 119 138 160 158
347 40 25 79 71 198 207 171 180 148 98 78 127 104 133 135 152 155 158 158 164 170 182 183 176 178 175 183 177 178 173 177 172 163 145 142 139 133 136 140 140 121 108 101 91 101 135 154 174
127 73 118 191 160 218 146 146 172 90 95 128 94 132 158 163 161 164 161 171 183 192 198 200 200 193 186 179 178 186 184 175 183 174 151 145 149 157 144 146 127 106 104 98 97 96 95 151 179
153 302 346 331 183 148 157 172 171 106 122 110 47 107 153 163 167 167 166 176 187 194 199 203 203 202 203 202 199 193 186 168 170 172 150 147 157 153 152 146 121 111 102 99 83 68 52 100 188
194 254 309 232 192 199 170 153 155 153 136 106 87 110 143 157 166 165 162 159 175 183 187 190 193 199 199 197 197 190 177 179 155 156 145 155 157 145 158 149 124 121 106 109 111 23 16 33 186
169 319 327 30 157 146 150 152 128 147 159 197 161 150 153 163 170 166 158 137 138 150 154 165 179 188 187 181 179 178 163 177 170 151 150 153 153 149 152 145 130 121 98 68 24 21 40 54 132
281 35 24 83 156 165 138 135 121 131 105 176 165 156 161 170 173 168 160 149 145 142 141 156 173 176 167 166 170 169 166 158 150 163 158 151 145 152 153 149 126 109 81 49 103 56 69 71 89
228 65 49 113 132 129 118 75 71 177 130 139 167 167 174 174 177 175 167 163 161 146 126 123 143 157 162 162 161 158 154 152 157 160 151 135 144 154 154 145 121 96 88 99 68 81 90 77 75
72 87 102 108 116 121 130 39 116 107 185 163 173 177 185 185 184 186 185 171 159 154 133 116 115 124 143 145 156 152 149 148 152 147 152 140 153 156 152 143 124 93 109 82 76 78 75 83 134
116 103 115 120 148 125 142 181 186 149 176 173 177 186 198 195 200 199 193 178 173 165 157 127 121 117 134 146 138 147 149 142 146 154 150 132 152 150 151 157 134 111 74 100 90 72 37 99 122
185 182 265 170 193 176 247 241 205 173 172 200 191 195 211 209 210 206 199 186 181 180 172 158 137 126 128 135 141 153 143 145 153 158 153 148 155 152 140 165 171 132 94 65 63 70 93 106 108
305 325 263 196 205 188 229 295 168 194 190 209 210 210 216 221 214 224 204 193 186 188 173 166 158 144 147 147 149 146 149 151 158 164 159 164 152 146 143 152 162 146 43 36 46 61 63 70 77
308 322 284 243 194 214 219 253 241 192 200 216 218 213 219 227 227 224 216 207 194 195 189 185 172 162 162 162 162 160 165 165 169 163 167 170 149 132 141 146 148 98 74 57 44 38 61 65 59
280 292 302 264 181 196 234 263 243 208 209 219 216 214 217 225 231 222 223 214 203 208 195 193 191 181 175 175 178 179 168 172 166 189 177 173 154 142 140 143 145 109 29 41 41 0 24 54 43
253 286 290 188 159 203 244 260 247 229 224 220 214 213 218 220 225 223 219 215 213 211 199 192 186 182 181 181 184 181 178 171 174 184 181 176 165 156 153 170 200 217 319 7 17 0 346 357 8
251 267 278 287 133 214 280 272 233 232 231 233 227 225 221 217 216 220 211 214 215 212 202 192 189 188 191 189 187 193 186 181 176 171 175 176 168 167 170 192 223 234 261 340 352 4 6 18 55
276 229 252 206 201 288 247 299 270 227 230 224 230 217 217 215 220 225 214 211 212 211 204 197 193 195 196 195 198 200 198 198 192 182 181 177 179 186 193 197 214 234 247 259 298 325 353 32 31
281 50 249 190 200 289 192 255 271 225 234 230 225 219 214 211 212 214 213 212 211 209 205 208 198 198 197 202 208 210 205 204 205 204 204 204 203 210 213 214 221 230 237 239 252 269 264 325 12
137 102 95 103 241 255 99 242 282 220 224 236 224 219 211 205 209 215 214 218 208 216 209 213 208 204 203 206 213 215 217 212 222 217 218 213 219 229 236 244 229 229 230 232 239 246 246 275 317
194 187 241 198 199 276 103 226 263 254 265 261 277 226 212 205 205 204 208 218 205 217 209 211 211 211 211 210 217 221 222 213 224 219 226 229 237 239 243 251 242 237 237 235 234 242 239 248 284
195 225 231 255 226 282 146 237 271 175 300 288 269 226 201 203 203 201 210 217 217 217 212 213 214 210 217 219 218 220 224 226 229 233 233 240 241 239 240 243 254 235 237 241 238 240 239 244 251
162 205 226 137 103 270 262 263 268 257 216 227 175 182 194 199 202 202 207 214 213 214 216 210 221 220 220 220 222 222 227 232 238 239 236 242 244 237 239 245 250 252 243 244 247 246 247 248 253
217 147 171 198 230 257 224 278 281 243 196 203 185 199 194 197 200 202 206 213 220 219 218 215 221 229 230 229 227 229 229 234 240 247 240 238 238 234 244 243 250 243 241 244 251 249 253 256 260
159 194 116 127 270 254 283 300 204 227 193 188 189 203 194 192 196 198 204 212 222 224 217 218 218 226 231 234 233 233 233 236 238 242 242 242 242 241 247 240 237 235 244 246 249 250 257 257 264
215 226 212 221 203 236 298 277 155 219 185 198 170 189 186 181 187 195 202 212 219 217 215 215 218 225 236 230 235 234 233 236 241 241 240 235 242 246 242 236 234 239 245 243 252 256 258 262 265
Wind_Speed_850mb
8 8 4 2 2 2 6 7 3 7 6 4 11 1 3 9 4 4 18 35 39 36 34 30 27 27 22 22 21 19 18 19 18 19 18 17 16 16 15 11 10 11 11 13 12 13 14 13 11
7 3 6 2 0 6 7 8 24 17 17 16 14 9 7 7 7 15 33 30 38 34 32 30 28 27 24 22 23 22 19 17 15 16 14 14 15 15 13 9 14 16 16 15 12 13 14 14 15
2 4 5 3 4 6 11 11 11 5 4 4 7 12 5 5 7 25 22 32 34 30 29 29 26 24 25 22 21 19 19 17 15 15 15 14 12 13 11 14 17 18 17 15 13 12 13 15 15
3 2 6 2 4 4 12 10 2 4 9 7 14 12 9 8 15 13 26 33 31 26 25 25 22 23 22 24 21 18 17 17 16 15 13 10 13 16 20 20 18 17 14 14 13 13 15 17 15
6 3 4 4 2 3 4 2 2 4 1 8 4 9 7 7 11 18 23 26 25 25 25 23 20 20 23 23 23 22 19 18 16 13 11 5 16 19 22 22 17 13 13 12 12 12 13 13 11
2 1 3 2 1 2 4 4 2 7 6 9 8 12 5 13 17 25 23 21 22 20 23 23 21 20 21 21 19 19 18 16 15 15 11 15 24 18 22 20 16 13 13 13 14 13 13 12 12
2 2 5 3 2 6 6 10 2 8 12 8 16 6 11 17 25 22 21 20 19 19 19 20 21 20 21 19 16 15 16 15 14 13 14 15 24 18 19 19 16 15 16 15 16 13 10 11 10
3 1 0 3 6 3 8 8 6 10 9 17 5 4 12 25 26 21 21 18 17 16 16 16 18 18 21 23 19 15 14 12 14 13 20 21 22 20 21 17 16 19 18 18 16 14 11 5 6
3 1 4 4 7 5 12 8 9 8 21 9 4 3 12 31 25 22 19 17 17 18 19 21 23 26 26 19 22 20 15 13 18 22 25 23 24 23 21 18 19 19 18 16 11 15 17 4 10
4 1 3 2 5 5 17 8 16 12 13 6 13 16 29 28 25 19 16 15 14 19 20 20 21 23 24 24 24 21 19 19 23 22 29 27 24 23 19 18 22 18 15 12 9 7 10 6 6
4 4 6 3 7 18 11 10 9 14 6 8 17 28 30 28 23 17 15 12 17 19 16 15 15 16 16 22 26 24 24 23 25 37 30 25 24 23 19 18 18 16 10 5 9 14 10 8 7
3 9 5 3 9 14 7 8 8 8 3 6 24 28 28 27 22 18 16 13 18 18 14 12 13 15 19 24 28 27 26 31 38 37 27 25 21 20 19 18 17 14 7 6 12 10 11 14 9
2 2 10 9 12 9 7 15 4 8 5 12 29 29 26 24 20 18 16 14 16 15 15 15 16 17 19 28 37 35 33 42 36 32 34 23 22 21 20 16 15 11 13 14 9 12 12 9 8
8 16 12 7 11 9 8 7 7 7 11 22 30 29 26 23 21 20 18 15 14 18 21 22 23 19 26 31 36 39 43 35 34 39 35 20 21 22 19 11 9 7 11 11 12 12 13 9 6
4 7 8 6 3 5 12 1 7 10 17 23 28 28 26 23 23 20 16 15 17 21 25 23 24 24 28 33 38 45 34 32 38 34 28 16 20 21 16 10 8 9 11 11 11 9 4 9 9
4 3 4 8 9 7 8 12 23 24 18 22 28 29 29 26 25 23 19 18 20 21 27 24 26 29 30 35 41 35 39 41 38 38 24 24 23 19 17 12 7 9 9 14 16 14 13 11 10
1 7 3 4 18 6 11 6 7 32 25 24 26 31 31 28 28 28 23 22 22 25 25 25 28 35 37 37 37 40 39 34 28 26 25 27 21 16 15 12 11 5 6 5 9 12 13 10 11
4 10 4 7 15 14 17 21 2 30 29 28 33 34 35 36 34 32 28 26 25 27 26 27 27 34 37 40 36 31 28 24 18 29 27 28 18 16 15 11 9 3 8 9 11 8 13 13 14
5 10 15 5 11 17 22 23 22 23 39 39 36 39 42 43 32 33 37 31 30 32 29 30 32 37 41 42 38 29 25 22 19 25 26 29 18 17 14 10 5 0 4 9 9 10 9 12 15
13 16 14 3 10 20 11 29 32 33 48 53 52 47 47 40 32 35 42 39 38 34 32 32 35 39 43 41 34 27 23 23 17 25 26 28 19 16 11 10 7 5 4 7 10 14 12 13 13
19 19 14 8 9 11 14 18 17 24 45 42 55 57 50 49 37 36 44 45 43 39 37 34 39 39 39 38 34 27 28 26 21 23 26 28 21 15 10 12 6 8 8 4 9 12 17 14 14
26 8 19 13 10 7 3 12 13 10 24 35 47 53 51 50 45 38 45 49 50 45 38 38 39 36 38 39 36 29 30 28 24 23 23 23 19 14 12 12 13 8 11 7 5 9 9 11 8
11 8 2 9 6 9 8 8 6 4 14 33 45 50 54 54 50 46 56 53 50 49 43 42 43 40 36 36 34 32 30 28 25 23 24 22 18 16 13 15 18 16 12 12 9 9 7 3 7
13 15 17 9 2 6 3 7 13 5 7 6 29 52 57 57 52 50 51 51 48 51 46 44 45 47 42 37 33 30 31 32 28 30 26 27 23 19 18 19 23 23 19 17 15 13 11 6 5
14 11 2 3 4 9 1 9 19 10 19 22 20 33 55 56 55 50 52 59 57 62 56 50 49 45 47 43 38 33 27 29 22 28 29 28 30 25 20 17 22 23 23 23 22 17 17 13 13
24 17 9 10 8 10 5 10 8 5 17 14 9 17 36 50 58 56 58 62 58 62 60 55 53 48 46 45 44 39 32 31 30 26 32 30 33 28 25 20 17 23 25 22 25 24 21 19 17
13 13 3 4 2 8 5 11 22 7 8 5 6 13 29 44 55 61 60 57 53 64 65 56 53 50 45 44 42 42 38 35 33 30 32 36 30 33 31 26 25 22 26 25 25 27 27 26 25
12 22 8 5 10 14 6 10 12 8 12 9 9 14 19 29 38 46 55 60 50 55 60 58 52 48 47 45 47 43 42 38 31 30 33 29 30 33 33 33 29 28 27 28 26 28 29 29 31
10 10 4 3 4 7 8 10 7 10 13 18 16 18 18 24 34 41 49 57 51 50 51 51 50 47 45 45 45 48 43 41 37 31 30 31 32 34 34 35 30 31 29 30 29 28 26 27 28
8 14 28 16 15 2 7 12 4 7 11 12 12 17 16 18 24 29 37 46 48 44 44 48 45 41 39 40 40 41 44 44 43 38 31 34 33 31 30 31 33 31 27 27 31 35 36 34 33
Wind_Direction_850mb
123 90 116 15 191 77 60 43 36 100 53 15 130 227 130 69 359 16 158 158 158 156 153 150 151 148 146 148 148 147 142 136 133 130 137 141 140 143 148 146 144 149 151 145 152 146 151 155 156
165 12 17 31 142 134 98 46 92 79 126 102 88 73 48 75 56 124 138 153 157 158 156 156 155 154 150 145 152 155 154 152 148 140 155 153 160 151 153 125 119 123 136 135 143 139 136 137 126
219 13 7 56 102 140 125 119 99 55 268 112 109 73 55 50 96 140 148 156 156 159 161 164 164 162 157 158 152 157 162 163 157 161 175 180 174 163 160 127 121 127 125 126 129 133 125 126 132
107 42 49 17 152 116 121 134 48 75 95 80 120 92 88 89 136 142 143 157 155 159 161 160 166 173 165 163 169 173 164 159 163 161 174 166 182 174 146 126 133 126 114 115 123 122 130 128 117
54 52 61 84 22 99 170 208 87 80 332 109 120 112 97 124 146 155 151 151 161 166 164 158 166 167 173 170 174 181 174 165 165 165 157 153 148 137 136 132 134 121 117 112 104 104 125 127 123
16 70 34 32 21 205 262 157 180 148 124 117 96 111 110 141 144 152 154 159 162 176 175 168 167 167 168 174 180 181 173 173 173 169 156 132 132 131 125 145 136 132 114 108 109 119 138 160 158
347 40 25 79 71 198 207 171 180 148 98 78 127 104 133 135 152 155 158 158 164 170 182 183 176 178 175 183 177 178 173 177 172 163 145 142 139 133 136 140 140 121 108 101 91 101 135 154 174
127 73 118 191 160 218 146 146 172 90 95 128 94 132 158 163 161 164 161 171 183 192 198 200 200 193 186 179 178 186 184 175 183 174 151 145 149 157 144 146 127 106 104 98 97 96 95 151 179
153 302 346 331 183 148 157 172 171 106 122 110 47 107 153 163 167 167 166 176 187 194 199 203 203 202 203 202 199 193 186 168 170 172 150 147 157 153 152 146 121 111 102 99 83 68 52 100 188
194 254 309 232 192 199 170 153 155 153 136 106 87 110 143 157 166 165 162 159 175 183 187 190 193 199 199 197 197 190 177 179 155 156 145 155 157 145 158 149 124 121 106 109 111 23 16 33 186
169 319 327 30 157 146 150 152 128 147 159 197 161 150 153 163 170 166 158 137 138 150 154 165 179 188 187 181 179 178 163 177 170 151 150 153 153 149 152 145 130 121 98 68 24 21 40 54 132
281 35 24 83 156 165 138 135 121 131 105 176 165 156 161 170 173 168 160 149 145 142 141 156 173 176 167 166 170 169 166 158 150 163 158 151 145 152 153 149 126 109 81 49 103 56 69 71 89
228 65 49 113 132 129 118 75 71 177 130 139 167 167 174 174 177 175 167 163 161 146 126 123 143 157 162 162 161 158 154 152 157 160 151 135 144 154 154 145 121 96 88 99 68 81 90 77 75
72 87 102 108 116 121 130 39 116 107 185 163 173 177 185 185 184 186 185 171 159 154 133 116 115 124 143 145 156 152 149 148 152 147 152 140 153 156 152 143 124 93 109 82 76 78 75 83 134
116 103 115 120 148 125 142 181 186 149 176 173 177 186 198 195 200 199 193 178 173 165 157 127 121 117 134 146 138 147 149 142 146 154 150 132 152 150 151 157 134 111 74 100 90 72 37 99 122
185 182 265 170 193 176 247 241 205 173 172 200 191 195 211 209 210 206 199 186 181 180 172 158 137 126 128 135 141 153 143 145 153 158 153 148 155 152 140 165 171 132 94 65 63 70 93 106 108
305 325 263 196 205 188 229 295 168 194 190 209 210 210 216 221 214 224 204 193 186 188 173 166 158 144 147 147 149 146 149 151 158 164 159 164 152 146 143 152 162 146 43 36 46 61 63 70 77
308 322 284 243 194 214 219 253 241 192 200 216 218 213 219 227 227 224 216 207 194 195 189 185 172 162 162 162 162 160 165 165 169 163 167 170 149 132 141 146 148 98 74 57 44 38 61 65 59
280 292 302 264 181 196 234 263 243 208 209 219 216 214 217 225 231 222 223 214 203 208 195 193 191 181 175 175 178 179 168 172 166 189 177 173 154 142 140 143 145 109 29 41 41 0 24 54 43
253 286 290 188 159 203 244 260 247 229 224 220 214 213 218 220 225 223 219 215 213 211 199 192 186 182 181 181 184 181 178 171 174 184 181 176 165 156 153 170 200 217 319 7 17 0 346 357 8
251 267 278 287 133 214 280 272 233 232 231 233 227 225 221 217 216 220 211 214 215 212 202 192 189 188 191 189 187 193 186 181 176 171 175 176 168 167 170 192 223 234 261 340 352 4 6 18 55
276 229 252 206 201 288 247 299 270 227 230 224 230 217 217 215 220 225 214 211 212 211 204 197 193 195 196 195 198 200 198 198 192 182 181 177 179 186 193 197 214 234 247 259 298 325 353 32 31
281 50 249 190 200 289 192 255 271 225 234 230 225 219 214 211 212 214 213 212 211 209 205 208 198 198 197 202 208 210 205 204 205 204 204 204 203 210 213 214 221 230 237 239 252 269 264 325 12
137 102 95 103 241 255 99 242 282 220 224 236 224 219 211 205 209 215 214 218 208 216 209 213 208 204 203 206 213 215 217 212 222 217 218 213 219 229 236 244 229 229 230 232 239 246 246 275 317
194 187 241 198 199 276 103 226 263 254 265 261 277 226 212 205 205 204 208 218 205 217 209 211 211 211 211 210 217 221 222 213 224 219 226 229 237 239 243 251 242 237 237 235 234 242 239 248 284
195 225 231 255 226 282 146 237 271 175 300 288 269 226 201 203 203 201 210 217 217 217 212 213 214 210 217 219 218 220 224 226 229 233 233 240 241 239 240 243 254 235 237 241 238 240 239 244 251
162 205 226 137 103 270 262 263 268 257 216 227 175 182 194 199 202 202 207 214 213 214 216 210 221 220 220 220 222 222 227 232 238 239 236 242 244 237 239 245 250 252 243 244 247 246 247 248 253
217 147 171 198 230 257 224 278 281 243 196 203 185 199 194 197 200 202 206 213 220 219 218 215 221 229 230 229 227 229 229 234 240 247 240 238 238 234 244 243 250 243 241 244 251 249 253 256 260
159 194 116 127 270 254 283 300 204 227 193 188 189 203 194 192 196 198 204 212 222 224 217 218 218 226 231 234 233 233 233 236 238 242 242 242 242 241 247 240 237 235 244 246 249 250 257 257 264
215 226 212 221 203 236 298 277 155 219 185 198 170 189 186 181 187 195 202 212 219 217 215 215 218 225 236 230 235 234 233 236 241 241 240 235 242 246 242 236 234 239 245 243 252 256 258 262 265